OSLO / GARDERMOEN current weather conditions

sailwx.info

Wind from 190 at 8 knots

Air temperature 1.0° C
Visibility: greater than 5.4 NM
Dewpoint -0.0° C

Last reported at 2016-Feb-09 20:20 UTC.
Time now 2016-Feb-09 22:32 UTC

Location: N 60°12' E 011°05'.
View on Google Maps.

See reports from other nearby stations

  
Tides and Currents Weather Stations Pressure Air Temp Water Temp Dewpoint Dewpoint Depression Visibility Wind Speed Wind Dir Waves Ship Positions
date/time (UTC)wind fromknots sea level pressurealtimeterstation pressurevisibilityair tempwater tempwave heightnotes
2016-Feb-09 21:20 210 4 5.4 1.0
2016-Feb-09 20:50 200 6 5.4 2.0
2016-Feb-09 20:20 190 8 5.4 1.0
2016-Feb-09 19:50 210 6 5.4 1.0
2016-Feb-09 19:20 170 7 5.4 2.0
2016-Feb-09 18:50 190 7 5.4 2.0
2016-Feb-09 18:20 200 6 5.4 1.0
2016-Feb-09 17:50 5.4 1.0
2016-Feb-09 17:20 200 5 5.4 1.0
2016-Feb-09 16:50 190 7 5.4 2.0
2016-Feb-09 16:20 180 8 5.4 2.0
2016-Feb-09 15:50 200 9 5.4 3.0
2016-Feb-09 15:20 200 7 5.4 3.0
2016-Feb-09 14:50 190 7 5.4 3.0
2016-Feb-09 14:20 190 7 5.4 3.0
2016-Feb-09 13:50 190 8 5.4 3.0
2016-Feb-09 13:20 180 6 5.4 3.0
2016-Feb-09 12:50 190 5 4.9 2.0
2016-Feb-09 12:20 190 4 0.5 2.0 Fog.
2016-Feb-09 11:50 180 4 1.5 2.0 Partial fog.
2016-Feb-09 11:20 210 3 1.8 2.0 Partial fog.
2016-Feb-09 10:50 180 4 1.2 2.0 Partial fog.
2016-Feb-09 10:20 160 4 1.3 2.0 Light rain showers. Fog.
2016-Feb-09 09:50 150 3 2.2 1.0 Light rain showers. Mist.
2016-Feb-09 09:20 150 3 2.7 1.0 Light rain showers. Mist.
2016-Feb-09 08:50 160 6 3.2 1.0 Light rain showers.
2016-Feb-09 08:20 150 7 4.3 2.0 Light rain showers.
2016-Feb-09 07:50 160 7 5.4 2.0 Light rain showers.
2016-Feb-09 07:20 150 7 4.9 2.0 Light rain showers.
2016-Feb-09 06:50 150 6 5.4 2.0 Showers in the vicinity.
2016-Feb-09 06:20 150 6 4.3 2.0 Light drizzle rain.
2016-Feb-09 05:50 150 6 3.2 2.0 Light rain.
2016-Feb-09 05:20 150 6 4.9 2.0 Light rain.
2016-Feb-09 04:50 140 5 5.4 2.0 Light rain.
2016-Feb-09 04:20 140 6 4.9 2.0 Light rain.
2016-Feb-09 03:50 140 6 4.9 2.0 Light rain.
2016-Feb-09 03:20 150 9 5.4 2.0 Light rain.
2016-Feb-09 02:50 150 7 5.4 3.0
2016-Feb-09 02:20 150 7 5.4 2.0 Light rain.
2016-Feb-09 01:50 170 9 5.4 2.0 Light rain.
2016-Feb-09 01:20 170 8 5.4 2.0 Light rain.
2016-Feb-09 00:50 160 7 5.4 3.0 Light rain.
2016-Feb-09 00:20 180 7 5.4 2.0 Light rain.
2016-Feb-08 23:50 170 7 5.4 2.0 Light rain.
2016-Feb-08 23:20 170 7 5.4 2.0 Light rain.
2016-Feb-08 22:50 160 8 5.4 2.0 Light rain.
2016-Feb-08 22:20 170 6 5.4 2.0 Light rain.
2016-Feb-08 21:50 170 8 5.4 2.0 Light rain.
2016-Feb-08 21:20 160 8 5.4 2.0 Light rain.
2016-Feb-08 20:50 170 9 5.4 3.0 Light rain.
2016-Feb-08 20:20 180 12 5.4 3.0 Light rain.
2016-Feb-08 19:50 180 11 5.4 2.0 Light rain.
2016-Feb-08 19:20 170 10 5.4 2.0 Light rain.
2016-Feb-08 18:50 170 10 5.4 2.0 Light rain.
2016-Feb-08 18:20 160 7 5.4 2.0 Light rain.
2016-Feb-08 17:50 150 10 5.4 2.0 Light rain.
2016-Feb-08 17:20 150 12 5.4 2.0 Light rain.
2016-Feb-08 16:50 150 9 4.3 2.0 Light rain.
2016-Feb-08 16:20 3.2 2.0 Light rain.
2016-Feb-08 15:50 170 5 4.3 1.0 Light rain snow.
2016-Feb-08 15:20 160 5 3.8 1.0 Light rain.
2016-Feb-08 14:50 170 5 3.2-0.0 Light rain snow.
2016-Feb-08 14:20 160 6 2.2-0.0 Light rain snow.
2016-Feb-08 13:50 150 5 2.2 1.0 Light snow.
2016-Feb-08 13:20 150 5 0.9 1.0 Light snow.
2016-Feb-08 12:50 150 4 2.2 1.0 Light snow.
2016-Feb-08 12:20 160 6 2.7 1.0 Snow rain.
2016-Feb-08 11:50 150 7 2.7 1.0 Rain snow.
2016-Feb-08 11:20 170 9 3.2 1.0 Rain snow.
2016-Feb-08 10:50 160 9 3.8 2.0 Light rain.
2016-Feb-08 10:20 160 10 4.3 2.0 Light rain.
2016-Feb-08 09:50 160 10 4.3 2.0 Light rain.
2016-Feb-08 09:20 160 13 3.2 2.0 Light rain.
2016-Feb-08 08:50 160 14 3.2 2.0 Light rain.
2016-Feb-08 08:20 170 18 3.8 2.0 Light rain.
2016-Feb-08 07:50 170 16 3.8 3.0 Light rain.
2016-Feb-08 07:20 160 15 5.4 3.0 Light rain.
2016-Feb-08 06:50 160 15 5.4 3.0 Light rain.
2016-Feb-08 06:20 160 12 5.4 2.0 Light rain.
2016-Feb-08 05:50 170 15 5.4 2.0 Light rain.
2016-Feb-08 05:20 160 13 5.4 3.0 Light rain.
2016-Feb-08 04:50 170 16 5.4 3.0 Light rain.
2016-Feb-08 04:20 160 16 5.4 3.0 Light rain showers.
2016-Feb-08 03:50 170 13 5.4 3.0 Light rain showers.
2016-Feb-08 03:20 170 14 5.4 3.0 Light rain showers.
2016-Feb-08 02:50 180 16 5.4 3.0 Light rain showers.
2016-Feb-08 02:20 180 17 5.4 3.0
2016-Feb-08 01:50 190 18 5.4 3.0
2016-Feb-08 01:20 190 18 5.4 2.0 Light rain showers.
2016-Feb-08 00:50 190 18 5.4 2.0
2016-Feb-08 00:20 200 18 gusting 29 5.4 3.0
2016-Feb-07 23:50 180 19 5.4 2.0
2016-Feb-07 23:20 180 15 5.4 2.0 Light rain.
2016-Feb-07 22:50 190 16 5.4 2.0
2016-Feb-07 22:20 190 18 5.4 2.0